FW4844 Weather Reports


Display with metric or nautical units.
time (UTC)temp
F
wind
direction
speed
MPH
gust
MPH
rain 1hr
in
rain 24hr
in
rain mn
in
humidity
%
barometer
mb
20260906030127 58 324 0.0 4.0 0.00 0.00 0.00 89 1013.1
20260906025617 58 324 1.0 4.0 0.00 0.00 0.00 89 1013.1
20260906025111 58 324 2.0 4.0 0.00 0.00 0.00 89 1013.3
20260906024605 58 0 1.0 4.0 0.00 0.00 0.00 89 1013.3
20260906024054 58 350 1.0 3.0 0.00 0.00 0.00 90 1013.3
20260906023309 58 351 1.0 5.0 0.00 0.00 0.00 89 1013.3
20260906022533 58 355 1.0 5.0 0.00 0.00 0.00 89 1013.3
20260906022027 59 59 2.0 5.0 0.00 0.00 0.00 89 1013.2
20260906021521 59 71 2.0 6.0 0.00 0.00 0.00 89 1013.2
20260906021011 59 355 2.0 6.0 0.00 0.00 0.00 89 1013.1
20260906020505 58 18 2.0 6.0 0.00 0.00 0.00 90 1013.1
20260906015958 58 355 1.0 6.0 0.00 0.00 0.00 90 1013.2
20260906015449 58 24 1.0 5.0 0.00 0.00 0.00 91 1013.1
20260906014943 58 24 1.0 5.0 0.00 0.00 0.00 91 1013.1
20260906014437 58 348 1.0 4.0 0.00 0.00 0.00 92 1013.1
20260906013927 58 336 1.0 3.0 0.00 0.00 0.00 92 1013.0
20260906013421 58 350 1.0 4.0 0.00 0.00 0.00 93 1013.2
20260906012915 58 351 1.0 4.0 0.00 0.00 0.00 93 1013.1
20260906012405 58 355 1.0 3.0 0.00 0.00 0.00 93 1013.1
20260906011900 58 284 1.0 3.0 0.00 0.00 0.00 94 1013.2
20260906011353 58 5 1.0 2.0 0.00 0.00 0.00 93 1013.3
20260906010843 58 5 0.0 2.0 0.00 0.00 0.00 93 1013.3
20260906010337 58 5 0.0 1.0 0.00 0.00 0.00 93 1013.2
20260906005831 58 5 0.0 1.0 0.00 0.00 0.00 92 1013.2
20260906005321 58 5 0.0 2.0 0.00 0.00 0.00 91 1013.1
20260906004535 58 5 0.0 1.0 0.00 0.00 0.00 90 1013.0
20260906003759 59 5 1.0 3.0 0.00 0.00 0.00 90 1013.0
20260906003253 59 5 1.0 3.0 0.00 0.00 0.00 90 1012.9
20260906003007 58 5 1.0 4.0 0.00 0.00 0.00 90 1012.9
20260906002237 58 347 0.0 4.0 0.00 0.00 0.00 91 1012.9
20260906001733 59 22 0.0 2.0 0.00 0.00 0.00 90 1012.8
20260906001225 59 22 0.0 2.0 0.00 0.00 0.00 90 1012.7
20260906000715 59 22 1.0 2.0 0.00 0.00 0.00 89 1012.6
20260906000209 60 22 1.0 4.0 0.00 0.00 0.00 88 1012.7
20260905235703 60 355 2.0 8.0 0.00 0.00 0.00 87 1012.7
20260905235153 60 75 3.0 8.0 0.00 0.00 0.00 88 1012.6
20260905234652 60 42 2.0 5.0 0.00 0.00 0.00 88 1012.6
20260905234141 60 62 2.0 5.0 0.00 0.00 0.00 88 1012.7
20260905233631 60 80 2.0 4.0 0.00 0.00 0.00 88 1012.6
20260905233350 60 77 2.0 4.0 0.00 0.00 0.00 88 1012.6
20260905232837 60 5 1.0 4.0 0.00 0.00 0.00 87 1012.6
20260905232326 61 5 2.0 7.0 0.00 0.00 0.00 87 1012.7
20260905231833 61 0 2.0 7.0 0.00 0.00 0.00 86 1012.6
20260905231107 61 37 3.0 9.0 0.00 0.00 0.00 86 1012.5
20260905230609 61 28 3.0 9.0 0.00 0.00 0.00 86 1012.5
20260905230106 62 331 3.0 9.0 0.00 0.00 0.00 86 1012.5
20260905225604 62 26 2.0 9.0 0.00 0.00 0.00 87 1012.5
20260905225325 62 337 2.0 5.0 0.00 0.00 0.00 88 1012.4
20260905224603 62 0 2.0 5.0 0.00 0.00 0.00 87 1012.4
20260905224104 62 65 1.0 3.0 0.00 0.00 0.00 87 1012.4
20260905223604 62 65 1.0 3.0 0.00 0.00 0.00 87 1012.2
20260905223102 62 69 0.0 2.0 0.00 0.00 0.00 87 1012.2
20260905222559 63 69 0.0 2.0 0.00 0.00 0.00 87 1012.4
20260905222059 63 69 0.0 2.0 0.00 0.00 0.00 87 1012.4
20260905221558 63 69 0.0 2.0 0.00 0.00 0.00 88 1012.2
20260905221057 63 69 0.0 2.0 0.00 0.00 0.00 88 1012.2
20260905220557 63 68 0.0 0.0 0.00 0.00 0.00 87 1012.2
20260905220058 63 68 0.0 3.0 0.00 0.00 0.00 86 1012.2
20260905215818 64 68 1.0 4.0 0.00 0.00 0.00 86 1012.1
20260905215057 64 68 1.0 4.0 0.00 0.00 0.00 86 1012.0
20260905214554 64 53 1.0 3.0 0.00 0.00 0.00 84 1012.0
20260905214052 64 53 1.0 3.0 0.00 0.00 0.00 83 1012.0
20260905213551 64 136 1.0 4.0 0.00 0.00 0.00 83 1011.9
20260905213311 64 136 1.0 4.0 0.00 0.00 0.00 83 1011.8
20260905212548 65 80 1.0 4.0 0.00 0.00 0.00 83 1011.9
20260905212045 65 83 1.0 3.0 0.00 0.00 0.00 83 1011.8
20260905211546 65 92 1.0 3.0 0.00 0.00 0.00 83 1011.8
20260905211046 65 92 1.0 3.0 0.00 0.00 0.00 83 1011.8
20260905210546 65 32 1.0 5.0 0.00 0.00 0.00 82 1011.8
20260905210045 65 32 2.0 5.0 0.00 0.00 0.00 81 1011.7
20260905205546 66 37 1.0 4.0 0.00 0.00 0.00 81 1011.7
20260905204546 66 59 1.0 5.0 0.00 0.00 0.00 82 1011.5
20260905204045 65 59 1.0 5.0 0.00 0.00 0.00 81 1011.5
20260905203545 65 63 1.0 3.0 0.00 0.00 0.00 81 1011.6
20260905203307 65 63 1.0 3.0 0.00 0.00 0.00 81 1011.6
20260905202546 65 49 1.0 4.0 0.00 0.00 0.00 78 1011.5
20260905202041 65 49 2.0 5.0 0.00 0.00 0.00 80 1011.4
20260905201542 66 49 2.0 5.0 0.00 0.00 0.00 79 1011.4
20260905201041 66 59 3.0 7.0 0.00 0.00 0.00 75 1011.4
20260905200541 66 52 3.0 7.0 0.00 0.00 0.00 75 1011.4
20260905200042 66 88 2.0 7.0 0.00 0.00 0.00 76 1011.4
20260905195541 67 29 2.0 7.0 0.00 0.00 0.00 74 1011.5
20260905195041 67 80 2.0 6.0 0.00 0.00 0.00 76 1011.4
20260905194542 67 5 2.0 5.0 0.00 0.00 0.00 77 1011.5
20260905194037 66 127 1.0 3.0 0.00 0.00 0.00 81 1011.4
20260905193537 67 129 1.0 4.0 0.00 0.00 0.00 81 1011.4
20260905193038 66 129 2.0 4.0 0.00 0.00 0.00 79 1011.3
20260905192037 66 132 1.0 4.0 0.00 0.00 0.00 82 1011.3
20260905191756 66 132 1.0 5.0 0.00 0.00 0.00 82 1011.3
20260905191036 66 142 2.0 5.0 0.00 0.00 0.00 83 1011.4
20260905190805 66 139 2.0 5.0 0.00 0.00 0.00 82 1011.4
20260905190034 66 224 1.0 4.0 0.00 0.00 0.00 83 1011.4
20260905185534 65 132 1.0 4.0 0.00 0.00 0.00 83 1011.4
20260905185029 65 96 1.0 4.0 0.00 0.00 0.00 84 1011.4
20260905184518 65 105 1.0 4.0 0.00 0.00 0.00 85 1011.4
20260905184012 64 105 1.0 4.0 0.00 0.00 0.00 82 1011.4
20260905183507 65 115 1.0 4.0 0.00 0.00 0.00 83 1011.4
20260905182956 65 115 1.0 4.0 0.00 0.00 0.00 82 1011.4
20260905182450 65 138 2.0 5.0 0.00 0.00 0.00 81 1011.3
20260905181944 66 136 2.0 6.0 0.00 0.00 0.00 82 1011.3
20260905181434 66 117 2.0 8.0 0.00 0.00 0.00 81 1011.3
20260905180928 66 311 2.0 8.0 0.00 0.00 0.00 80 1011.4
20260905180422 65 341 2.0 7.0 0.00 0.00 0.00 78 1011.5
20260905175912 65 65 3.0 8.0 0.00 0.00 0.00 79 1011.5
20260905175406 65 22 3.0 8.0 0.00 0.00 0.00 81 1011.5
20260905174900 64 84 3.0 7.0 0.00 0.00 0.00 81 1011.4
20260905174350 64 43 3.0 8.0 0.00 0.00 0.00 81 1011.5
20260905173844 64 53 2.0 7.0 0.00 0.00 0.00 83 1011.4
20260905173338 64 86 3.0 11.0 0.00 0.00 0.00 83 1011.3
20260905172828 65 348 3.0 11.0 0.00 0.00 0.00 81 1011.3
20260905172320 66 175 3.0 10.0 0.00 0.00 0.00 79 1011.3
20260905171814 67 86 3.0 10.0 0.00 0.00 0.00 76 1011.2
20260905171303 68 138 3.0 8.0 0.00 0.00 0.00 76 1011.3
20260905170756 68 132 2.0 8.0 0.00 0.00 0.00 77 1011.3
20260905170250 67 0 2.0 4.0 0.00 0.00 0.00 80 1011.4
20260905165739 66 268 2.0 4.0 0.00 0.00 0.00 81 1011.3
20260905165232 65 123 1.0 3.0 0.00 0.00 0.00 82 1011.4
20260905164726 66 130 2.0 5.0 0.00 0.00 0.00 86 1011.4
20260905164216 65 135 2.0 5.0 0.00 0.00 0.00 83 1011.4
20260905163710 65 150 2.0 5.0 0.00 0.00 0.00 84 1011.4
20260905163204 65 141 1.0 5.0 0.00 0.00 0.00 83 1011.4
20260905162920 65 165 1.0 5.0 0.00 0.00 0.00 83 1011.4
20260905162152 65 167 2.0 5.0 0.00 0.00 0.00 83 1011.5
20260905161642 65 99 2.0 7.0 0.00 0.00 0.00 82 1011.6
20260905161132 65 342 3.0 8.0 0.00 0.00 0.00 81 1011.6
20260905160120 66 312 2.0 5.0 0.00 0.00 0.00 83 1011.5
20260905155611 64 324 2.0 6.0 0.00 0.00 0.00 83 1011.6
20260905155103 64 241 2.0 7.0 0.00 0.00 0.00 83 1011.6
20260905154558 64 317 1.0 7.0 0.00 0.00 0.00 82 1011.7
20260905154047 64 266 2.0 6.0 0.00 0.00 0.00 81 1011.7
20260905153542 65 28 2.0 6.0 0.00 0.00 0.00 82 1011.7
20260905153036 65 109 2.0 5.0 0.00 0.00 0.00 83 1011.7
20260905152527 65 70 2.0 6.0 0.00 0.00 0.00 83 1011.7
20260905152020 64 256 2.0 6.0 0.00 0.00 0.00 86 1011.8
20260905151514 63 9 1.0 5.0 0.00 0.00 0.00 87 1011.8
20260905151004 63 236 1.0 4.0 0.00 0.00 0.00 90 1011.8
20260905150457 62 344 2.0 4.0 0.00 0.00 0.00 88 1012.0
20260905145952 62 22 1.0 4.0 0.00 0.00 0.00 89 1011.9
20260905145442 62 309 1.0 5.0 0.00 0.00 0.00 90 1011.9
20260905144936 62 307 2.0 5.0 0.00 0.00 0.00 90 1011.8
20260905144430 62 325 2.0 6.0 0.00 0.00 0.00 90 1011.7
20260905143920 62 236 3.0 8.0 0.00 0.00 0.00 89 1011.5
20260905143414 62 309 3.0 8.0 0.00 0.00 0.00 88 1011.5
20260905142908 62 67 2.0 7.0 0.00 0.00 0.00 90 1011.6
20260905142358 61 328 2.0 8.0 0.00 0.00 0.00 91 1011.6
20260905141852 61 317 2.0 8.0 0.00 0.00 0.00 92 1011.6
20260905141345 61 329 2.0 6.0 0.00 0.00 0.00 93 1011.6
20260905140835 60 164 2.0 8.0 0.00 0.00 0.00 92 1011.6
20260905140330 60 278 2.0 8.0 0.00 0.00 0.00 92 1011.7
20260905135825 60 279 2.0 6.0 0.00 0.00 0.00 92 1011.8
20260905135314 60 307 2.0 6.0 0.00 0.00 0.00 92 1011.7
20260905134812 60 26 2.0 7.0 0.00 0.00 0.00 93 1011.7
20260905134311 60 265 2.0 7.0 0.00 0.00 0.00 92 1011.7
20260905133809 60 323 2.0 8.0 0.00 0.00 0.00 92 1011.7
20260905133309 60 300 2.0 8.0 0.00 0.00 0.00 92 1011.6
20260905132814 60 320 2.0 6.0 0.00 0.00 0.00 92 1011.5
20260905132528 60 355 2.0 8.0 0.00 0.00 0.00 93 1011.5
20260905131809 59 311 2.0 8.0 0.00 0.00 0.00 93 1011.5
20260905131307 59 75 2.0 6.0 0.00 0.00 0.00 94 1011.5
20260905130807 59 331 2.0 5.0 0.00 0.00 0.00 94 1011.5
20260905130307 59 315 3.0 6.0 0.00 0.00 0.00 94 1011.3
20260905125807 59 304 2.0 6.0 0.00 0.00 0.00 94 1011.3
20260905125307 58 0 1.0 4.0 0.00 0.00 0.00 95 1011.4
20260905124805 58 286 1.0 5.0 0.00 0.00 0.00 95 1011.3
20260905124305 58 242 2.0 5.0 0.00 0.00 0.00 95 1011.3
20260905124030 58 323 2.0 5.0 0.00 0.00 0.00 96 1011.2
20260905123259 58 277 2.0 6.0 0.00 0.00 0.00 96 1011.1
20260905122752 58 285 3.0 8.0 0.00 0.00 0.00 96 1011.1
20260905122243 58 327 3.0 8.0 0.00 0.00 0.00 96 1011.0
20260905121736 57 15 2.0 8.0 0.00 0.00 0.00 97 1011.0
20260905121452 57 347 3.0 9.0 0.00 0.00 0.00 97 1011.1
20260905120720 57 345 3.0 9.0 0.00 0.00 0.00 97 1011.1
20260905120214 57 308 3.0 8.0 0.00 0.00 0.00 97 1011.0
20260905115711 57 53 3.0 8.0 0.00 0.00 0.00 97 1010.9
20260905115210 57 329 3.0 8.0 0.00 0.00 0.00 97 1010.9
20260905114711 56 289 3.0 8.0 0.00 0.00 0.00 97 1010.8
20260905114211 56 333 3.0 8.0 0.00 0.00 0.00 97 1010.8
20260905113710 56 355 3.0 8.0 0.00 0.00 0.00 98 1010.7
20260905113211 56 300 3.0 6.0 0.00 0.00 0.00 98 1010.8
20260905112711 56 286 3.0 9.0 0.00 0.00 0.00 98 1010.8
20260905112211 55 306 2.0 9.0 0.00 0.00 0.00 98 1010.7
20260905111933 55 264 1.0 5.0 0.00 0.00 0.00 97 1010.6
20260905111211 55 326 1.0 4.0 0.00 0.00 0.00 98 1010.6
20260905110710 55 5 2.0 7.0 0.00 0.00 0.00 98 1010.5
20260905110209 55 355 2.0 7.0 0.00 0.00 0.00 97 1010.5
20260905105206 55 329 3.0 6.0 0.00 0.00 0.00 98 1010.5
20260905104700 54 305 2.0 6.0 0.00 0.00 0.00 97 1010.5
20260905104155 55 21 2.0 6.0 0.00 0.00 0.00 98 1010.4
20260905103652 55 90 2.0 6.0 0.00 0.00 0.00 97 1010.4
20260905103152 55 5 2.0 5.0 0.00 0.00 0.00 97 1010.2
20260905102652 55 18 2.0 5.0 0.00 0.00 0.00 97 1010.1
20260905102153 55 351 1.0 4.0 0.00 0.00 0.00 97 1010.0
20260905101653 55 350 1.0 4.0 0.00 0.00 0.00 97 1010.1
20260905101153 55 292 2.0 4.0 0.00 0.00 0.00 98 1010.0
20260905100653 55 297 2.0 6.0 0.00 0.00 0.00 98 1010.0
20260905100152 55 9 3.0 8.0 0.00 0.00 0.00 98 1010.2
20260905095653 55 313 3.0 8.0 0.00 0.00 0.00 98 1010.1
20260905095153 55 36 3.0 8.0 0.00 0.00 0.00 98 1010.1
20260905094653 55 305 3.0 9.0 0.00 0.00 0.00 97 1009.9
20260905094153 55 355 3.0 9.0 0.00 0.00 0.00 97 1010.0
20260905093653 55 323 2.0 8.0 0.00 0.00 0.00 97 1010.0
20260905093153 55 306 2.0 8.0 0.00 0.00 0.00 97 1010.0
20260905092653 55 345 2.0 5.0 0.00 0.00 0.00 97 1010.0
20260905092152 55 24 2.0 6.0 0.00 0.00 0.00 97 1010.0
20260905091653 55 334 3.0 8.0 0.00 0.00 0.00 97 1009.9
20260905091153 55 335 2.0 8.0 0.00 0.00 0.00 97 1009.9
20260905090654 55 341 3.0 9.0 0.00 0.00 0.00 97 1009.9
20260905090154 55 334 4.0 9.0 0.00 0.00 0.00 97 1009.8
20260905085654 55 311 4.0 9.0 0.00 0.00 0.00 97 1009.9
20260905085426 55 325 3.0 8.0 0.00 0.00 0.00 97 1010.0
20260905084654 55 5 3.0 8.0 0.00 0.00 0.00 97 1010.0
20260905084154 55 19 3.0 8.0 0.00 0.00 0.00 97 1010.0
20260905083650 55 305 3.0 8.0 0.00 0.00 0.00 97 1009.9
20260905083149 55 69 2.0 8.0 0.00 0.00 0.00 97 1010.0
20260905082648 55 29 1.0 7.0 0.00 0.00 0.00 97 1009.9
20260905082146 55 321 1.0 4.0 0.00 0.00 0.00 97 1009.9
20260905081645 55 307 1.0 3.0 0.00 0.00 0.00 97 1009.8
20260905081144 55 308 1.0 5.0 0.00 0.00 0.00 97 1009.8
20260905080643 55 351 2.0 6.0 0.00 0.00 0.00 97 1009.8
20260905080141 55 310 2.0 6.0 0.00 0.00 0.00 97 1009.8
20260905075641 56 331 2.0 6.0 0.00 0.00 0.00 97 1009.9
20260905075140 56 5 2.0 7.0 0.00 0.00 0.00 97 1009.9
20260905074640 55 343 2.0 7.0 0.00 0.00 0.00 97 1010.0
20260905074138 55 314 2.0 6.0 0.00 0.00 0.00 97 1010.0
20260905073638 55 300 2.0 8.0 0.00 0.00 0.00 97 1010.0
20260905073137 55 344 2.0 8.0 0.00 0.00 0.00 97 1010.0
20260905072631 55 306 2.0 8.0 0.00 0.00 0.00 97 1010.0
20260905072125 55 0 2.0 8.0 0.00 0.00 0.00 97 1010.0
20260905071620 55 0 1.0 8.0 0.00 0.00 0.00 97 1010.0
20260905071120 55 336 2.0 8.0 0.00 0.00 0.00 97 1010.1
20260905070618 55 309 2.0 8.0 0.00 0.00 0.00 97 1010.1
20260905070118 55 328 1.0 5.0 0.00 0.00 0.00 97 1010.1
20260905065616 55 328 1.0 5.0 0.00 0.00 0.00 97 1010.2
20260905065118 54 321 2.0 5.0 0.00 0.00 0.00 97 1010.2
20260905064838 55 315 2.0 5.0 0.00 0.00 0.00 97 1010.1
20260905064333 55 322 2.0 5.0 0.00 0.00 0.00 97 1010.2
20260905063614 55 26 1.0 4.0 0.00 0.00 0.00 96 1010.4
20260905063335 55 26 1.0 3.0 0.00 0.00 0.00 97 1010.4
20260905062836 55 40 1.0 3.0 0.00 0.00 0.00 97 1010.4
20260905062108 55 41 1.0 3.0 0.00 0.00 0.00 96 1010.4
20260905061609 56 40 1.0 3.0 0.00 0.00 0.00 97 1010.4
20260905061109 56 40 1.0 3.0 0.00 0.00 0.00 97 1010.4
20260905060608 56 40 1.0 3.0 0.00 0.00 0.00 97 1010.5
20260905060107 56 26 1.0 3.0 0.00 0.00 0.00 97 1010.4
20260905055559 56 26 1.0 3.0 0.00 0.00 0.00 97 1010.5
20260905055053 55 26 0.0 2.0 0.00 0.00 0.00 96 1010.5
20260905054549 55 26 1.0 2.0 0.00 0.00 0.00 96 1010.4
20260905054048 55 26 0.0 2.0 0.00 0.00 0.00 96 1010.4
20260905053546 56 26 0.0 2.0 0.00 0.00 0.00 96 1010.5
20260905053305 56 26 1.0 3.0 0.00 0.00 0.00 95 1010.5
20260905052544 56 26 0.0 3.0 0.00 0.00 0.00 95 1010.5
20260905052040 57 17 1.0 3.0 0.00 0.00 0.00 95 1010.5
20260905051036 57 17 3.0 10.0 0.00 0.00 0.00 96 1010.6
20260905050756 58 250 5.0 10.0 0.00 0.00 0.00 97 1010.5
20260905050033 57 252 5.0 9.0 0.00 0.00 0.00 97 1010.5
20260905045533 57 247 4.0 9.0 0.00 0.00 0.00 96 1010.5
20260905045259 56 246 3.0 7.0 0.00 0.00 0.00 96 1010.5
20260905044534 56 269 2.0 7.0 0.00 0.00 0.00 96 1010.6
20260905044034 56 248 2.0 6.0 0.00 0.00 0.00 96 1010.7
20260905043535 56 263 2.0 7.0 0.00 0.00 0.00 96 1010.6
20260905043035 55 274 2.0 7.0 0.00 0.00 0.00 96 1010.6
20260905042526 55 258 2.0 4.0 0.00 0.00 0.00 96 1010.7
20260905042020 56 248 3.0 6.0 0.00 0.00 0.00 96 1010.8
20260905041514 56 257 2.0 6.0 0.00 0.00 0.00 96 1010.8
20260905041004 56 259 1.0 4.0 0.00 0.00 0.00 95 1010.7
20260905040457 56 286 1.0 4.0 0.00 0.00 0.00 95 1010.8
20260905035952 56 279 0.0 4.0 0.00 0.00 0.00 95 1010.8
20260905035442 56 290 0.0 2.0 0.00 0.00 0.00 95 1010.9
20260905034936 56 290 0.0 2.0 0.00 0.00 0.00 95 1011.0
20260905034655 57 290 0.0 3.0 0.00 0.00 0.00 95 1011.0
20260905033928 57 289 1.0 3.0 0.00 0.00 0.00 95 1011.0
20260905033429 56 281 0.0 2.0 0.00 0.00 0.00 95 1011.0
20260905033149 56 281 0.0 2.0 0.00 0.00 0.00 94 1011.0
20260905032428 57 0 0.0 2.0 0.00 0.00 0.00 94 1010.9
20260905032145 57 0 1.0 3.0 0.00 0.00 0.00 94 1011.0
20260905031425 57 0 0.0 3.0 0.00 0.00 0.00 94 1010.9
20260905030922 57 0 1.0 3.0 0.00 0.00 0.00 93 1011.0
20260905030421 57 0 1.0 3.0 0.00 0.00 0.00 93 1010.9